Location: Newark
(49.5647°N, 8.2922°E)
Time: 10:10:59
(UTC+00:00)

Transit 2A - Pass Details

Date: 27 February 2020
Orbit: 597 x 961 km, 66.7° (Epoch: 28 March)

Event Time Altitude Azimuth Distance (km) Brightness Sun altitude
Rises 11:05:46 0° 193° (SSW) 2,827 9.9 31.5°
Reaches altitude 10° 11:08:05 10° 186° (S) 1,928 9.5 31.6°
Maximum altitude 11:12:05 40° 117° (ESE) 900 7.2 31.7°
Drops below altitude 10° 11:16:15 10° 48° (NE) 2,006 8.0 31.8°
Sets 11:18:41 0° 41° (NE) 2,958 8.7 31.8°
